{"data":{"norad_id":59622,"intl_designator":"2024-080X","name":"STARLINK-31774","alt_names":[],"object_type":"PAYLOAD","status":"ACTIVE","operator":null,"country":"US","launch_date":"2024-04-28","launch_site_code":"AFETR","launch_vehicle":null,"mission":null,"orbit_class":"UNKNOWN","rcs_meters":null,"size_class":null,"mass_kg":null,"dimensions":null,"purposes":["comms"],"wikipedia_slug":null,"has_3d_model":false,"image_url":null,"decayed_at":null,"tle_current":{"epoch":"2026-09-21T14:28:29.668224Z","epoch_age_seconds":72769,"freshness":"FRESH","line1":"1 59622U 24080X   26264.60312116  .00000337  00000+0  21785-4 0  9997","line2":"2 59622  43.0034   8.1542 0001195 269.5558  90.5157 15.27581125134536","mean_motion":15.27581125,"eccentricity":0.0001195,"inclination_deg":43.0034,"raan_deg":8.1542,"arg_perigee_deg":269.5558,"mean_anomaly_deg":90.5157,"bstar":2.1785e-5,"rev_number":13453,"period_min":94.26667929011,"perigee_km":482.22581605108,"apogee_km":483.86563872293,"semimajor_km":6861.182727387,"source":"CELESTRAK","updated_at":"2026-09-22T09:00:49.014329Z"}}}